Regional Weather Roundup
Issued by NWS Little Rock, AR

Home | Current Version | Previous Version | Text Only | Print | Product List | Glossary Off
Versions: 1 2 3 4 5 6 7 8 9 10 11 12 13 14 15 16 17 18 19 20 21 22 23 24 25 26 27 28 29 30 31

000
ASUS44 KLZK 280305
RWRLZK

WEATHER ROUNDUP FOR ARKANSAS
NATIONAL WEATHER SERVICE LITTLE ROCK AR
1000 PM CDT SAT MAY 27 2017

NOTE: "FAIR" INDICATES FEW OR NO CLOUDS BELOW 12,000 FEET WITH NO
SIGNIFICANT WEATHER AND/OR OBSTRUCTIONS TO VISIBILITY.

ARZ001-003-010-029-280400-
NORTHWEST ARKANSAS

CITY           SKY/WX    TMP DP  RH WIND       PRES   REMARKS
FAYETTEVILLE   CLOUDY    80  73  79 VRB3      29.79R
FORT SMITH     CLOUDY    83  71  67 SW7       29.72F HX  87
HARRISON       CLOUDY    69  62  78 NW8       29.90R
BENTONVILLE    CLOUDY    66  61  82 NW12      29.81R THUNDER
ROGERS         TSTM      64  62  93 VRB5      29.82R FOG
SILOAM SPGS    CLOUDY    72  57  60 N21G32    29.82R THUNDER
HIGHFILL       TSTM      71  62  73 W15G24    29.83R
$$

ARZ004-005-016-280400-
NORTH CENTRAL ARKANSAS

CITY           SKY/WX    TMP DP  RH WIND       PRES   REMARKS
BATESVILLE     CLOUDY    70  61  73 N18G25    29.88R
FLIPPIN        CLOUDY    70  57  64 NE5       29.84R THUNDER
MTN HOME       LGT RAIN  67  61  81 W7        29.94R
$$

ARZ040-041-280400-
WEST CENTRAL ARKANSAS

CITY           SKY/WX    TMP DP  RH WIND       PRES   REMARKS
MENA           CLOUDY    82  81  94 S3        29.79F HX  95
MOUNT IDA      CLOUDY    83  73  72 VRB6      29.79R HX  89
$$

ARZ009-017-025-026-028-280400-
NORTHEAST ARKANSAS

CITY           SKY/WX    TMP DP  RH WIND       PRES   REMARKS
JONESBORO      TSTM      64  61  90 N28G48    29.97R FOG
NEWPORT        CLOUDY    69  62  78 NE28G52   29.89R HAZE
WALNUT RIDGE   CLOUDY    63  57  82 NE28      29.90F THUNDER
BLYTHEVILLE    LGT RAIN  67  64  90 E12G21    29.87R
$$

ARZ022-023-033-042-044-280400-
CENTRAL ARKANSAS

CITY           SKY/WX    TMP DP  RH WIND       PRES   REMARKS
LITTLE ROCK    MOCLDY    80  76  87 S8        29.81R HX  86
N LITTLE ROCK    N/A     81  76  83 S5        29.79R HX  87
JACKSONVILLE   CLOUDY    82  77  84 S6        29.80R HX  89
CONWAY           N/A     82  75  78 S12       29.77R HX  89
SEARCY         MOCLDY    81  76  84 S3        29.83R HX  87
HOT SPRINGS    CLOUDY    83  76  79 SW5       29.80R HX  91
RUSSELLVILLE   CLOUDY    83  73  72 S3        29.77R HX  89
CLINTON        CLOUDY    77  75  94 CALM      29.80R FOG
$$

ARZ036-280400-
EAST ARKANSAS

CITY           SKY/WX    TMP DP  RH WIND       PRES   REMARKS
WEST MEMPHIS   CLOUDY    81  75  82 S5        29.81S HX  87
$$

ARZ050-053-066-070-073-280400-
SOUTHWEST ARKANSAS

CITY           SKY/WX    TMP DP  RH WIND       PRES   REMARKS
ARKADELPHIA    MOCLDY    80  76  87 S3        29.79R HX  86
CAMDEN         PTCLDY    81  73  78 S5        29.81R HX  85
TEXARKANA      MOCLDY    81  76  84 S10       29.79S HX  87
EL DORADO      CLEAR     80  74  81 S6        29.83R HX  85
DE QUEEN       CLOUDY    80  78  94 CALM      29.75F FOG     HX  88
$$

ARZ056-057-069-280400-
SOUTHEAST ARKANSAS

CITY           SKY/WX    TMP DP  RH WIND       PRES   REMARKS
PINE BLUFF     CLOUDY    80  75  84 S6        29.82R HX  85
STUTTGART      CLOUDY    82  66  57 S6        29.83R HX  85
MONTICELLO     CLEAR     81  75  82 S8        29.82R HX  87

$$






USA.gov is the U.S. government's official web portal to all federal, state and local government web resources and services.